Logansport, IN

8:26 PM EDT on September 24, 2017 (GMT -0400)
Logansport Municipal

Weather History for KGGP - January, 2014

Change the Weather History Date:

Monday, January 27, 2014

  Actual Average Record
Temperature  
Mean Temperature 2 °F -  
Max Temperature 17 °F 29 °F 33 °F (2013)
Min Temperature -14 °F 14 °F -14 °F (2014)
Degree Days  
Heating Degree Days 63    
Moisture  
Dew Point -9 °F    
Average Humidity 67    
Maximum Humidity 79    
Minimum Humidity 49    
Precipitation  
Precipitation 0.00 in - - ()
Sea Level Pressure  
Sea Level Pressure 30.19 in    
Wind  
Wind Speed 18 mph (West)    
Max Wind Speed 26 mph    
Max Gust Speed 36 mph    
Visibility 9 miles    
Events Snow    
Averages and records for this station are not official NWS values.
T = Trace of Precipitation, MM = Missing Value Source: NWS Daily Summary

Daily Weather History Graph

Daily Weather History Graph

Search for Another Location

Airport or City:

Trip Planner

Search our weather history database for the weather conditions in past years. The results will help you decide how hot, cold, wet, or windy it might be!

Date:

Astronomy

Jan. 27, 2014 Rise Set
Actual Time 7:59 AM EST 5:57 PM EST
Civil Twilight 7:30 AM EST 6:26 PM EST
Nautical Twilight 6:57 AM EST 6:59 PM EST
Astronomical Twilight 6:25 AM EST 7:31 PM EST
Moon 4:40 AM EST (1/27) 2:42 PM EST (1/27)
Length of Visible Light 10h 55m
Length of Day
9h 57m
Waning Crescent, 15% of the Moon is Illuminated
Jan 27
Waning Crescent
Jan 30
New
Feb 6
First Quarter
Feb 14
Full
Feb 22
Last Quarter

Hourly Weather History & Observations

Time (EST) Temp. Windchill Dew Point Humidity Pressure Visibility Wind Dir Wind Speed Gust Speed Precip Events Conditions
12:15 AM 17.6 °F -0.3 °F 3.2 °F 53% 29.72 in 7.0 mi WNW 24.2 mph 33.4 mph N/A   Overcast
12:35 AM 17.6 °F 1.3 °F 1.4 °F 49% 29.73 in 10.0 mi West 19.6 mph 28.8 mph N/A   Overcast
12:55 AM 17.6 °F -0.6 °F 5.0 °F 58% 29.75 in 7.0 mi West 25.3 mph 32.2 mph N/A   Overcast
1:15 AM 12.2 °F -8.2 °F 6.8 °F 79% 29.78 in 0.8 mi West 26.5 mph 35.7 mph N/A Snow Snow
1:35 AM 10.4 °F -10.3 °F 5.0 °F 79% 29.81 in 0.5 mi West 25.3 mph 35.7 mph N/A Snow Snow
1:55 AM 8.6 °F -13.1 °F 3.2 °F 79% 29.83 in 1.2 mi West 26.5 mph 34.5 mph N/A Snow Light Snow
2:15 AM 8.6 °F -12.3 °F 1.4 °F 73% 29.85 in 3.0 mi West 24.2 mph 34.5 mph N/A   Haze
2:35 AM 8.6 °F -8.9 °F -0.4 °F 67% 29.87 in 7.0 mi WNW 16.1 mph 32.2 mph N/A   Overcast
2:55 AM 5.0 °F -16.2 °F -0.4 °F 78% 29.90 in 3.0 mi West 21.9 mph 31.1 mph N/A   Haze
3:15 AM 5.0 °F -15.7 °F -2.2 °F 72% 29.92 in 7.0 mi West 20.7 mph 28.8 mph N/A   Overcast
3:35 AM 3.2 °F -17.1 °F -4.0 °F 72% 29.94 in 7.0 mi West 18.4 mph 25.3 mph N/A   Overcast
3:55 AM 3.2 °F -18.6 °F -4.0 °F 72% 29.96 in 7.0 mi WNW 21.9 mph 29.9 mph N/A   Overcast
4:15 AM 3.2 °F -18.1 °F -4.0 °F 72% 29.98 in 10.0 mi WNW 20.7 mph 26.5 mph N/A   Overcast
4:35 AM 3.2 °F -17.6 °F -5.8 °F 66% 30.00 in 10.0 mi WNW 19.6 mph 26.5 mph N/A   Overcast
4:55 AM 1.4 °F -20.5 °F -5.8 °F 72% 30.01 in 10.0 mi WNW 20.7 mph 26.5 mph N/A   Scattered Clouds
5:15 AM 1.4 °F -19.9 °F -5.8 °F 72% 30.03 in 10.0 mi WNW 19.6 mph 28.8 mph N/A   Clear
5:35 AM 1.4 °F -18.2 °F -7.6 °F 66% 30.05 in 10.0 mi WNW 16.1 mph 27.6 mph N/A   Clear
5:55 AM 1.4 °F -16.9 °F -5.8 °F 72% 30.06 in 10.0 mi WNW 13.8 mph 23.0 mph N/A   Mostly Cloudy
6:15 AM 1.4 °F -16.9 °F -7.6 °F 66% 30.08 in 10.0 mi West 13.8 mph 23.0 mph N/A   Scattered Clouds
6:35 AM 1.4 °F -16.9 °F -5.8 °F 72% 30.09 in 10.0 mi West 13.8 mph 20.7 mph N/A   Mostly Cloudy
6:55 AM -0.4 °F -17.6 °F -7.6 °F 72% 30.11 in 10.0 mi West 11.5 mph - N/A   Mostly Cloudy
7:15 AM -0.4 °F -19.2 °F -7.6 °F 72% 30.13 in 10.0 mi West 13.8 mph 19.6 mph N/A   Mostly Cloudy
7:35 AM -0.4 °F -19.9 °F -7.6 °F 72% 30.14 in 7.0 mi West 15.0 mph 21.9 mph N/A   Overcast
7:55 AM -0.4 °F -18.4 °F -7.6 °F 72% 30.14 in 10.0 mi WNW 12.7 mph - N/A   Mostly Cloudy
8:15 AM -0.4 °F -19.2 °F -7.6 °F 72% 30.16 in 7.0 mi WNW 13.8 mph 18.4 mph N/A   Scattered Clouds
8:35 AM -0.4 °F -19.2 °F -7.6 °F 72% 30.16 in 10.0 mi WNW 13.8 mph 17.3 mph N/A   Clear
8:55 AM -0.4 °F -19.2 °F -7.6 °F 72% 30.18 in 10.0 mi WNW 13.8 mph 19.6 mph N/A   Clear
9:15 AM -0.4 °F -19.9 °F -7.6 °F 72% 30.20 in 10.0 mi West 15.0 mph - N/A   Clear
9:35 AM -0.4 °F -18.4 °F -7.6 °F 72% 30.21 in 10.0 mi West 12.7 mph 19.6 mph N/A   Scattered Clouds
9:55 AM -0.4 °F -20.5 °F -9.4 °F 66% 30.22 in 10.0 mi West 16.1 mph 24.2 mph N/A   Clear
10:15 AM -0.4 °F -20.5 °F -9.4 °F 66% 30.23 in 10.0 mi West 16.1 mph 24.2 mph N/A   Scattered Clouds
10:35 AM -0.4 °F -21.2 °F -9.4 °F 66% 30.23 in 10.0 mi West 17.3 mph 23.0 mph N/A   Scattered Clouds
10:55 AM -0.4 °F -21.2 °F -9.4 °F 66% 30.24 in 10.0 mi West 17.3 mph 21.9 mph N/A   Scattered Clouds
11:15 AM -0.4 °F -21.7 °F -9.4 °F 66% 30.24 in 10.0 mi West 18.4 mph - N/A   Mostly Cloudy
11:35 AM 1.4 °F -18.8 °F -9.4 °F 61% 30.25 in 10.0 mi West 17.3 mph - N/A   Overcast
11:55 AM 1.4 °F -18.8 °F -7.6 °F 66% 30.25 in 10.0 mi West 17.3 mph 20.7 mph N/A   Mostly Cloudy
12:15 PM 1.4 °F -18.2 °F -9.4 °F 61% 30.25 in 7.0 mi West 16.1 mph 23.0 mph N/A   Mostly Cloudy
12:35 PM 1.4 °F -18.2 °F -7.6 °F 66% 30.25 in 7.0 mi West 16.1 mph 26.5 mph N/A   Mostly Cloudy
12:55 PM 1.4 °F -18.2 °F -7.6 °F 66% 30.25 in 10.0 mi West 16.1 mph 23.0 mph N/A   Overcast
1:15 PM 1.4 °F -20.5 °F -9.4 °F 61% 30.25 in 10.0 mi West 20.7 mph 25.3 mph N/A   Mostly Cloudy
1:35 PM 1.4 °F -18.8 °F -9.4 °F 61% 30.25 in 10.0 mi West 17.3 mph 23.0 mph N/A   Mostly Cloudy
1:55 PM 1.4 °F -20.5 °F -9.4 °F 61% 30.26 in 10.0 mi West 20.7 mph 26.5 mph N/A   Mostly Cloudy
2:15 PM 1.4 °F -18.8 °F -9.4 °F 61% 30.25 in 7.0 mi West 17.3 mph 26.5 mph N/A   Overcast
2:35 PM 1.4 °F -16.9 °F -9.4 °F 61% 30.26 in 10.0 mi West 13.8 mph 20.7 mph N/A   Scattered Clouds
2:55 PM 3.2 °F -15.9 °F -7.6 °F 61% 30.25 in 7.0 mi West 16.1 mph 23.0 mph N/A   Mostly Cloudy
3:15 PM 1.4 °F -18.2 °F -9.4 °F 61% 30.26 in 10.0 mi West 16.1 mph 21.9 mph N/A   Overcast
3:35 PM 1.4 °F -18.2 °F -7.6 °F 66% 30.26 in 10.0 mi West 16.1 mph 23.0 mph N/A   Overcast
3:55 PM 1.4 °F -20.5 °F -9.4 °F 61% 30.27 in 10.0 mi West 20.7 mph 26.5 mph N/A   Scattered Clouds
4:15 PM 1.4 °F -18.2 °F -9.4 °F 61% 30.28 in 10.0 mi West 16.1 mph - N/A   Clear
4:35 PM 1.4 °F -19.9 °F -11.2 °F 56% 30.29 in 10.0 mi West 19.6 mph 26.5 mph N/A   Clear
4:55 PM 1.4 °F -18.2 °F -11.2 °F 56% 30.30 in 10.0 mi West 16.1 mph 19.6 mph N/A   Clear
5:15 PM -0.4 °F -19.9 °F -13.0 °F 55% 30.31 in 10.0 mi West 15.0 mph - N/A   Clear
5:35 PM -0.4 °F -19.9 °F -13.0 °F 55% 30.32 in 10.0 mi West 15.0 mph 20.7 mph N/A   Scattered Clouds
5:55 PM -0.4 °F -19.2 °F -13.0 °F 55% 30.33 in 10.0 mi West 13.8 mph 18.4 mph N/A   Mostly Cloudy
6:15 PM -2.2 °F -20.7 °F -9.4 °F 71% 30.34 in 4.0 mi WNW 12.7 mph 17.3 mph N/A   Haze
6:35 PM -4.0 °F -21.2 °F -13.0 °F 65% 30.35 in 10.0 mi West 10.4 mph - N/A   Scattered Clouds
6:55 PM -4.0 °F -19.0 °F -13.0 °F 65% 30.35 in 10.0 mi WNW 8.1 mph - N/A   Clear
7:15 PM -4.0 °F -17.8 °F -14.8 °F 60% 30.36 in 10.0 mi WNW 6.9 mph - N/A   Clear
7:35 PM -5.8 °F -19.9 °F -14.8 °F 65% 30.37 in 10.0 mi WNW 6.9 mph - N/A   Clear
7:55 PM -5.8 °F -19.9 °F -14.8 °F 65% 30.38 in 10.0 mi WNW 6.9 mph - N/A   Clear
8:15 PM -5.8 °F -18.4 °F -14.8 °F 65% 30.39 in 10.0 mi WNW 5.8 mph - N/A   Clear
8:35 PM -5.8 °F -21.2 °F -14.8 °F 65% 30.39 in 10.0 mi West 8.1 mph - N/A   Clear
8:55 PM -7.6 °F -20.6 °F -16.6 °F 65% 30.40 in 10.0 mi West 5.8 mph - N/A   Clear
9:15 PM -9.4 °F -24.3 °F -16.6 °F 71% 30.40 in 10.0 mi West 6.9 mph - N/A   Clear
9:35 PM -9.4 °F -24.3 °F -18.4 °F 65% 30.41 in 10.0 mi West 6.9 mph - N/A   Clear
9:55 PM -11.2 °F -26.4 °F -18.4 °F 70% 30.41 in 10.0 mi West 6.9 mph - N/A   Clear
10:15 PM -13.0 °F -30.0 °F -18.4 °F 77% 30.43 in 10.0 mi West 8.1 mph - N/A   Clear
10:35 PM -13.0 °F -31.3 °F -20.2 °F 70% 30.43 in 10.0 mi West 9.2 mph - N/A   Clear
10:55 PM -13.0 °F -30.0 °F -22.0 °F 64% 30.43 in 10.0 mi WSW 8.1 mph - N/A   Clear
11:15 PM -13.0 °F -28.6 °F -20.2 °F 70% 30.43 in 10.0 mi WSW 6.9 mph - N/A   Clear
11:35 PM -13.0 °F -27.0 °F -20.2 °F 70% 30.43 in 10.0 mi WSW 5.8 mph - N/A   Clear
11:55 PM -14.8 °F -29.1 °F -22.0 °F 70% 30.44 in 10.0 mi SW 5.8 mph - N/A   Clear